STARLINK-32423 (61218 NORAD) Tracking and Keplerian Element Data

This shows tracking and keplerian element data for the satellite.

Feedback or suggestion? Click here.




ElementValue
Catalog61218
NameSTARLINK-32423
Epoch Orbit477
Epoch Day286.91668981
Epoch Year2024
RAAN186.5811
Inclination53.1595
Eccentricity0.0001328
Argument of Perigee91.3107
Mean Anonmoly46.1835
Mean Motion15.47256201
Decay Rate-0.0153887
L11 61218U 24171U 24286.91668981 -.01538870 00000+0 -32927-1 0 9990
L22 61218 53.1595 186.5811 0001328 91.3107 46.1835 15.47256201 4771



Live tracking and technical data element details for STARLINK-32423 (NORAD 61218). STARLINK-32423 can be tracked NOW for your location showing map with azimuth and elevation plus other details from your city location.







IsCatalogInMostPopularTable: catalog: 61218, numindb: 24
Update: records affected: 1



GetName: 61218 STARLINK-32423

Hit Count: updated at: Wed, 04 Dec 2024 10:28:33 GMT